Location: Helion Bumpstead
(52.0500°N, 0.4000°E)
Time: 21:20:44
(UTC+00:00)

Cosmos 2123 Rocket - Pass Details

Date: 15 November 2025
Orbit: 961 x 991 km, 82.9° (Epoch: 14 December)

Event Time Altitude Azimuth Distance (km) Brightness Sun altitude
Exits shadow 05:09:25 28° 243° (WSW) 1,732 4.8 -19.6°
Maximum altitude 05:12:00 40° 290° (WNW) 1,389 4.3 -19.2°
Drops below altitude 10° 05:17:48 10° 360° (N) 2,709 6.3 -18.3°
Sets 05:20:29 0° 8° (N) 3,659 7.0 -17.9°
